Location: Lourdes
(43.1000°N, 0.0500°W)
Time: 05:08:07
(UTC+00:00)

Cosmos 773 Rocket - Pass Details

Date: 30 November 2020
Orbit: 746 x 776 km, 74.1° (Epoch: 24 January)

Event Time Altitude Azimuth Distance (km) Brightness Sun altitude
Rises 17:18:31 0° 192° (SSW) 3,219 7.7 -9.4°
Reaches altitude 10° 17:20:53 10° 191° (S) 2,302 6.9 -9.8°
Maximum altitude 17:26:05 72° 107° (ESE) 813 4.0 -10.7°
Drops below altitude 10° 17:31:22 10° 24° (NNE) 2,332 6.1 -11.6°
Enters shadow 17:32:48 - 23° (NNE) 2,891 6.6 -11.9°
